Location: *
(41.0833°N, 73.4167°W)
Time: 05:01:16
(UTC+00:00)

USA 32 - Pass Details

Date: 22 October 2019
Orbit: 778 x 782 km, 85.0° (Epoch: 28 October)

Event Time Altitude Azimuth Distance (km) Brightness Sun altitude
Exits shadow 08:59:36 54° 336° (NNW) 941 4.3 -25.7°
Drops below altitude 10° 09:03:46 10° 0° (N) 2,341 6.6 -24.9°
Sets 09:06:09 0° 3° (N) 3,274 7.4 -24.5°
